This is the latest recevied weather packets stored in our database for station/object HB9HJL-11. If no packets are shown the sender has not sent any weather packets the latest 10 day(s).
| Time | Temp. | Humidity | Pressure | Rain* | Wind** | Luminosity | Snow |
|---|---|---|---|---|---|---|---|
| 1777330035 | 11.11° C | 50% | 938 hPa | - | - | - | - |
| 1777329135 | 11.67° C | 50% | 939 hPa | - | - | - | - |
| 1777328235 | 12.22° C | 48% | 938 hPa | - | - | - | - |
| 1777327335 | 12.22° C | 47% | 936 hPa | - | - | - | - |
| 1777326435 | 12.22° C | 48% | 937 hPa | - | - | - | - |
| 1777325535 | 12.22° C | 50% | 939 hPa | - | - | - | - |
| 1777324635 | 12.22° C | 51% | 941 hPa | - | - | - | - |
| 1777323735 | 12.78° C | 50% | 941 hPa | - | - | - | - |
| 1777322835 | 13.33° C | 48% | 939 hPa | - | - | - | - |
| 1777321934 | 13.33° C | 51% | 942 hPa | - | - | - | - |
| 1777321034 | 13.33° C | 52% | 944 hPa | - | - | - | - |
| 1777320134 | 13.33° C | 52% | 944 hPa | - | - | - | - |
| 1777319234 | 13.33° C | 53% | 945 hPa | - | - | - | - |
| 1777318334 | 13.89° C | 53% | 945 hPa | - | - | - | - |
| 1777317434 | 13.89° C | 53% | 946 hPa | - | - | - | - |
| 1777316534 | 15° C | 49% | 943 hPa | - | - | - | - |
| 1777315634 | 16.11° C | 48% | 942 hPa | - | - | - | - |
| 1777314734 | 16.67° C | 46% | 941 hPa | - | - | - | - |
| 1777313833 | 17.78° C | 44% | 940 hPa | - | - | - | - |
| 1777312934 | 18.33° C | 42% | 938 hPa | - | - | - | - |
| 1777312033 | 19.44° C | 41% | 938 hPa | - | - | - | - |
| 1777311133 | 19.44° C | 39% | 937 hPa | - | - | - | - |
| 1777310233 | 20° C | 37% | 932 hPa | - | - | - | - |
| 1777309333 | 20.56° C | 34% | 930 hPa | - | - | - | - |
| 1777308433 | 21.67° C | 33% | 929 hPa | - | - | - | - |
* Rain since midnight (hover to see other rain measurements)
** Current wind speed in m/s (hover to see current wind gust speed)